Location: Sawmill Trailhead
(33.5800°N, 116.4497°W)
Time: 07:18:19
(UTC-07:00)

Envisat - Visible Passes

Search period start: 18 April 2019 00:00
Search period end: 28 April 2019 00:00
Orbit: 764 x 766 km, 98.2° (Epoch: 17 April)

Date Brightness Start Highest point End Pass type
(mag) Time Alt. Az. Time Alt. Az. Time Alt. Az.
18 Apr 4.3 19:55:24 10° S 20:00:12 42° W 20:05:01 10° NNW visible
20 Apr 5.4 20:21:53 10° SSW 20:25:50 23° W 20:29:49 10° NW visible
21 Apr 3.8 19:43:59 10° S 19:48:57 55° W 19:53:56 10° NNW visible
22 Apr 6.0 20:49:41 10° WSW 20:51:35 12° W 20:53:28 10° WNW visible
23 Apr 5.0 20:10:10 10° SSW 20:14:33 29° W 20:18:59 10° NW visible
25 Apr 5.7 20:37:13 10° SW 20:40:15 16° W 20:43:19 10° NW visible
26 Apr 4.6 19:58:36 10° SSW 20:03:17 38° W 20:08:01 10° NNW visible
